STARLINK-11528, 62521

Orbit data source: Space-Track

STARLINK-11528, 62521 is a payload satellite owned by SpaceX/Seattle (US) in LEO that was launched on Wed, 08 Jan 2025 UTC via an FALCON 9 launch vehicle from the Air Force Eastern Test Range (AFETR). Payloads include a variety of satellites, spacecraft, and rockets equipped with specific instruments for various scientific and technological missions. These include communications satellites like Starlink; space stations such as the ISS; scientific satellites like the Hubble; Earth observation satellites from companies like Planet Labs, Umbra, and HawkEye 360; GPS; miniature CubeSats for education and research; and military/defense satellites.

Loading next visibility...
STARLINK-11528 details
Identifier
62521, 2025-004L
Orbit
LEO
Last TLE update1 day ago
Origin
Flag of USSpaceX/Seattle (US)
ManufacturerSpaceX/Seattle
MissionOperational spacecraft
Bus & MotorSTARLINK V2M, Unknown motor
Mass730 kg wet, ~700 kg dry
Launch date (UTC)
2025-01-08 (1 month ago)
Launch vehicle
FALCON 9
Launch site
Air Force Eastern Test Range (AFETR)
Object type
Payload
Rocket body
Debris
Shape & HBRUnknown
Radar Cross SectionLarge (>1 m²)

Expand to show TLE details & history

TLE from 1 day ago
0 STARLINK-11528
1 62521U 25004L   25035.10023604  .00006886  00000-0  42399-4 0  9997
2 62521  42.9965 313.9464 0001509 266.9678  93.1019 15.77856189  4512
Epoch: 2025-02-04T02:24Z
Definitive object data (Epoch: 2025-02-04T02:24:20.393Z)
Latitude-0.00007°
Longitude143.35098°
Altitude336.341 km
Speed7.709 km/s
True Right ascension20h 55m 47s
True Declination0° 00' 00"
Sunlit
Object was in daylight at TLE epoch
Visualization TLE readout
Latitude-40.77641°
Longitude69.20452°
Altitude347.807 km
Speed7.701 km/s
Apparent Right ascension18h 26m 04s
Apparent Declination-46° 49' 05"
Sunlit
Object is in daylight
Visualization observer readout
Local Sidereal Time09:00:03
Azimuth116.847° SE
Elevation-61.483°
Doppler factor1
Orbital elements
Apogee altitude339.517 km
Perigee altitude337.49 km
Semi-major axis6,716.641 km
Eccentricity0.0001509
Inclination42.9965°
RAAN313.9464°
Arg. of periapsis266.9678°
True anomaly93.11917°
Mean anomaly93.1019°
Eccentric anomaly93.11053°
Mean motion3.94289 °/min
BSTAR0.000042399
Orbital period91.3 mins
Loading maneuver chart data...
Loading historical data...
Loading historical data...
Loading historical data...
Loading historical data...
Loading historical data...
Loading historical data...
Loading historical data...

STARLINK-11528 Visibility forecast

Observer location: undefined°, undefined

Span
Click to sort rows by Start time (UTC) header in descending order
Start Az.
Max El. time (UTC)
Max El. Az.
Max El.
End time (UTC)
End Az.
4 mins2025-02-05 21:08:47.627Z208.944° SW2025-02-05 21:10:47.627Z163.719° S23.191°2025-02-05 21:12:47.627Z100.591° ESE
4 mins2025-02-06 01:56:47.627Z283.819° WNW2025-02-06 01:58:47.627Z129.269° SE39.533°2025-02-06 02:00:47.627Z114.507° SE
|